• en France
  • Liste des pays
  • À 7 jours
  • Température de l'eau
  • Carte satellitaire
  • Carte météo
  • Widgets météo
  • user-avatar
    Se connecter

    Météo par heure à Bereznica

    Ce jour, 19 Juillet, Jeudi

    Heure Température Précipitation Vent Pression Humidité
    00:00 +19°C° 0 mm 2 m/s 752 mmHg 81%
    01:00 +19°C° 0 mm 2 m/s 752 mmHg 83%
    02:00 +18°C° 0 mm 2 m/s 752 mmHg 90%
    03:00 +18°C° 0,7 mm 3 m/s 752 mmHg 92%
    04:00 +18°C° 0,7 mm 3 m/s 752 mmHg 94%
    05:00 +18°C° 0,7 mm 3 m/s 752 mmHg 96%
    06:00 +19°C° 1,1 mm 3 m/s 752 mmHg 96%
    07:00 +19°C° 1,1 mm 3 m/s 752 mmHg 95%
    08:00 +19°C° 1,1 mm 3 m/s 752 mmHg 95%
    09:00 +21°C° 0,3 mm 3 m/s 752 mmHg 89%
    10:00 +22°C° 0,3 mm 4 m/s 752 mmHg 83%
    11:00 +25°C° 0,3 mm 4 m/s 752 mmHg 77%
    12:00 +26°C° 0,8 mm 4 m/s 751 mmHg 77%
    13:00 +26°C° 0,8 mm 4 m/s 751 mmHg 77%
    14:00 +27°C° 0,8 mm 4 m/s 751 mmHg 76%
    15:00 +27°C° 0,7 mm 3 m/s 751 mmHg 78%
    16:00 +26°C° 0,7 mm 3 m/s 751 mmHg 79%
    17:00 +26°C° 0,7 mm 3 m/s 751 mmHg 80%
    18:00 +25°C° 0,3 mm 3 m/s 751 mmHg 83%
    19:00 +24°C° 0,3 mm 2 m/s 751 mmHg 86%
    20:00 +23°C° 0,3 mm 2 m/s 751 mmHg 88%
    21:00 +21°C° 0,1 mm 2 m/s 751 mmHg 90%
    22:00 +20°C° 0,1 mm 2 m/s 751 mmHg 92%
    23:00 +19°C° 0,1 mm 2 m/s 751 mmHg 94%

    Demain, 20 Juillet, Vendredi

    Heure Température Précipitation Vent Pression Humidité
    00:00 +19°C° 0 mm 2 m/s 751 mmHg 95%
    01:00 +18°C° 0 mm 2 m/s 751 mmHg 96%
    02:00 +18°C° 0 mm 2 m/s 751 mmHg 97%
    03:00 +18°C° 0 mm 2 m/s 751 mmHg 97%
    04:00 +18°C° 0 mm 2 m/s 751 mmHg 97%
    05:00 +18°C° 0 mm 2 m/s 751 mmHg 97%
    06:00 +19°C° 0 mm 2 m/s 751 mmHg 94%
    07:00 +21°C° 0 mm 2 m/s 751 mmHg 90%
    08:00 +22°C° 0 mm 3 m/s 751 mmHg 87%
    09:00 +23°C° 0,2 mm 2 m/s 750 mmHg 84%
    10:00 +24°C° 0,2 mm 2 m/s 750 mmHg 82%
    11:00 +25°C° 0,2 mm 2 m/s 750 mmHg 79%
    12:00 +26°C° 0,6 mm 2 m/s 750 mmHg 77%
    13:00 +26°C° 0,6 mm 2 m/s 750 mmHg 74%
    14:00 +27°C° 0,6 mm 2 m/s 749 mmHg 71%
    15:00 +27°C° 1,3 mm 2 m/s 749 mmHg 76%
    16:00 +26°C° 1,3 mm 2 m/s 749 mmHg 80%
    17:00 +26°C° 1,3 mm 2 m/s 749 mmHg 84%
    18:00 +25°C° 0,7 mm 2 m/s 749 mmHg 88%
    19:00 +24°C° 0,7 mm 2 m/s 749 mmHg 91%
    20:00 +23°C° 0,7 mm 1 m/s 749 mmHg 94%
    21:00 +22°C° 0 mm 1 m/s 749 mmHg 95%
    22:00 +21°C° 0 mm 1 m/s 749 mmHg 96%
    23:00 +21°C° 0 mm 1 m/s 749 mmHg 97%

    Après-demain, 21 Juillet, Samedi

    Heure Température Précipitation Vent Pression Humidité
    00:00 +20°C° 0 mm 1 m/s 749 mmHg 98%
    01:00 +20°C° 0 mm 1 m/s 749 mmHg 98%
    02:00 +20°C° 0 mm 1 m/s 749 mmHg 98%
    03:00 +20°C° 0 mm 1 m/s 749 mmHg 98%
    04:00 +20°C° 0 mm 1 m/s 749 mmHg 98%
    05:00 +20°C° 0 mm 1 m/s 749 mmHg 98%
    06:00 +21°C° 0 mm 1 m/s 749 mmHg 95%
    07:00 +22°C° 0 mm 1 m/s 749 mmHg 92%
    08:00 +23°C° 0 mm 1 m/s 749 mmHg 89%
    09:00 +24°C° 0,2 mm 1 m/s 749 mmHg 84%
    10:00 +26°C° 0,2 mm 1 m/s 749 mmHg 79%
    11:00 +27°C° 0,2 mm 1 m/s 749 mmHg 73%
    12:00 +27°C° 0,4 mm 1 m/s 749 mmHg 70%
    13:00 +28°C° 0,4 mm 1 m/s 749 mmHg 67%
    14:00 +29°C° 0,4 mm 1 m/s 748 mmHg 64%
    15:00 +28°C° 0,5 mm 2 m/s 748 mmHg 67%
    16:00 +28°C° 0,5 mm 2 m/s 748 mmHg 71%
    17:00 +28°C° 0,5 mm 2 m/s 748 mmHg 75%
    18:00 +26°C° 0,3 mm 2 m/s 749 mmHg 79%
    19:00 +25°C° 0,3 mm 2 m/s 749 mmHg 84%
    20:00 +24°C° 0,3 mm 2 m/s 749 mmHg 88%
    21:00 +23°C° 0 mm 2 m/s 749 mmHg 90%
    22:00 +21°C° 0 mm 2 m/s 749 mmHg 92%
    23:00 +21°C° 0 mm 2 m/s 749 mmHg 94%

    22 Juillet, Dimanche

    Heure Température Précipitation Vent Pression Humidité
    00:00 +20°C° 0 mm 2 m/s 749 mmHg 95%
    01:00 +20°C° 0 mm 2 m/s 749 mmHg 96%
    02:00 +19°C° 0 mm 2 m/s 749 mmHg 97%
    03:00 +19°C° 0 mm 2 m/s 749 mmHg 96%
    04:00 +19°C° 0 mm 2 m/s 749 mmHg 95%
    05:00 +19°C° 0 mm 2 m/s 749 mmHg 94%
    06:00 +20°C° 0,1 mm 2 m/s 749 mmHg 91%
    07:00 +21°C° 0,1 mm 2 m/s 749 mmHg 88%
    08:00 +21°C° 0,1 mm 2 m/s 750 mmHg 84%
    09:00 +24°C° 0,1 mm 3 m/s 749 mmHg 79%
    10:00 +25°C° 0,1 mm 3 m/s 749 mmHg 75%
    11:00 +26°C° 0,1 mm 3 m/s 749 mmHg 70%
    12:00 +26°C° 0,2 mm 3 m/s 749 mmHg 70%
    13:00 +26°C° 0,2 mm 2 m/s 749 mmHg 69%
    14:00 +27°C° 0,2 mm 2 m/s 749 mmHg 69%
    15:00 +26°C° 0,5 mm 2 m/s 749 mmHg 74%
    16:00 +26°C° 0,5 mm 2 m/s 749 mmHg 80%
    17:00 +25°C° 0,5 mm 2 m/s 749 mmHg 85%
    18:00 +24°C° 0,6 mm 2 m/s 749 mmHg 88%
    19:00 +23°C° 0,6 mm 2 m/s 749 mmHg 91%
    20:00 +21°C° 0,6 mm 2 m/s 749 mmHg 94%
    21:00 +21°C° 0,3 mm 2 m/s 749 mmHg 95%
    22:00 +20°C° 0,3 mm 2 m/s 749 mmHg 96%
    23:00 +20°C° 0,3 mm 3 m/s 749 mmHg 97%

    23 Juillet, Lundi

    Heure Température Précipitation Vent Pression Humidité
    00:00 +19°C° 0,1 mm 3 m/s 750 mmHg 96%
    01:00 +19°C° 0,1 mm 3 m/s 750 mmHg 95%
    02:00 +18°C° 0,1 mm 3 m/s 750 mmHg 95%
    03:00 +17°C° 0 mm 3 m/s 750 mmHg 94%
    04:00 +17°C° 0 mm 3 m/s 750 mmHg 93%
    05:00 +16°C° 0 mm 3 m/s 750 mmHg 92%
    06:00 +17°C° 0 mm 3 m/s 750 mmHg 86%
    07:00 +18°C° 0 mm 3 m/s 750 mmHg 80%
    08:00 +20°C° 0 mm 3 m/s 750 mmHg 74%
    09:00 +21°C° 0 mm 3 m/s 750 mmHg 69%
    10:00 +24°C° 0 mm 3 m/s 750 mmHg 63%
    11:00 +25°C° 0 mm 3 m/s 750 mmHg 58%
    12:00 +26°C° 0 mm 3 m/s 750 mmHg 56%
    13:00 +27°C° 0 mm 3 m/s 750 mmHg 54%
    14:00 +28°C° 0 mm 3 m/s 750 mmHg 52%
    15:00 +27°C° 0,1 mm 3 m/s 750 mmHg 55%
    16:00 +27°C° 0,1 mm 3 m/s 750 mmHg 57%
    17:00 +27°C° 0,1 mm 3 m/s 750 mmHg 60%
    18:00 +26°C° 0,1 mm 2 m/s 750 mmHg 66%
    19:00 +24°C° 0,1 mm 2 m/s 750 mmHg 72%
    20:00 +23°C° 0,1 mm 2 m/s 751 mmHg 78%
    21:00 +21°C° 0 mm 2 m/s 751 mmHg 80%
    22:00 +20°C° 0 mm 2 m/s 751 mmHg 81%
    23:00 +19°C° 0 mm 2 m/s 751 mmHg 83%

    24 Juillet, Mardi

    Heure Température Précipitation Vent Pression Humidité
    00:00 +19°C° 0 mm 2 m/s 751 mmHg 84%
    01:00 +19°C° 0 mm 2 m/s 751 mmHg 85%
    02:00 +18°C° 0 mm 2 m/s 751 mmHg 86%
    03:00 +18°C° 0 mm 2 m/s 751 mmHg 86%
    04:00 +18°C° 0 mm 2 m/s 751 mmHg 86%
    05:00 +18°C° 0 mm 2 m/s 751 mmHg 86%
    06:00 +19°C° 0,1 mm 2 m/s 752 mmHg 82%
    07:00 +20°C° 0,1 mm 2 m/s 752 mmHg 78%
    08:00 +21°C° 0,1 mm 2 m/s 752 mmHg 74%
    09:00 +24°C° 0,1 mm 2 m/s 752 mmHg 71%
    10:00 +25°C° 0,1 mm 2 m/s 752 mmHg 69%
    11:00 +26°C° 0,1 mm 2 m/s 752 mmHg 66%
    12:00 +27°C° 0,1 mm 2 m/s 752 mmHg 63%
    13:00 +28°C° 0,1 mm 2 m/s 752 mmHg 61%
    14:00 +29°C° 0,1 mm 2 m/s 752 mmHg 58%
    15:00 +28°C° 0,5 mm 2 m/s 752 mmHg 63%
    16:00 +28°C° 0,5 mm 3 m/s 752 mmHg 67%
    17:00 +28°C° 0,5 mm 3 m/s 752 mmHg 72%
    18:00 +26°C° 0,3 mm 2 m/s 752 mmHg 78%
    19:00 +25°C° 0,3 mm 2 m/s 752 mmHg 83%
    20:00 +24°C° 0,3 mm 2 m/s 752 mmHg 89%
    21:00 +23°C° 0 mm 2 m/s 752 mmHg 91%
    22:00 +21°C° 0 mm 2 m/s 753 mmHg 93%
    23:00 +20°C° 0 mm 2 m/s 753 mmHg 95%
    Voir plus